[[{"header":{"parameterUnit":"m.s-1","parameterCategory":1,"la1":30.2992,"la2":30.254,"lo1":-89.0895,"lo2":-89.0443,"dy":0.0025,"dx":0.0025,"nx":19,"ny":19,"refTime":"2026-04-28T21:00:00:Z","depth":0,"parameterNumber":2,"parameterNumberName":"U-component_of_WINDS"},"data":[0,0,0,0.063,0.0634,0.0802,0.0803,0.1003,0.1004,0,0,0,0,0,0,0,0,0,0,0,0.0568,0.0569,0.063,0.0634,0.0802,0.0803,0.1002,0.1004,0,0,0,0,0,0,0,0,0,0,0,0.0568,0.0569,0.057,0.0634,0.0802,0.0803,0.1002,0.0881,0,0,0,0,0,0,0,0,0,0,0.0721,0.0651,0.0569,0.057,0.0635,0.0802,0.0803,0.0876,0.0889,0.0919,0,0.094,0,0.0975,0.1016,0.1017,0,0,0,0.0644,0.064,0.0696,0.057,0.0637,0.0801,0.0729,0.0883,0.0898,0.0936,0.0943,0.0951,0.0978,0.1018,0.1018,0.1153,0.1153,0,0,0.0634,0.0593,0.0685,0.0705,0.0675,0.0724,0.0734,0.0892,0.0898,0.0944,0.0956,0.0982,0.1019,0.102,0.1153,0.1153,0,0,0,0.0601,0.0586,0.0639,0.0696,0.0727,0.0728,0.074,0.0891,0.0912,0.0958,0.0984,0.102,0.1022,0.1153,0.1153,0.112,0,0,0,0.0596,0.0567,0.0634,0.061,0.0724,0.0811,0.0735,0.0901,0.092,0.0983,0.102,0.1024,0.1153,0.1153,0.1121,0.1112,0,0,0,0.0562,0.0563,0.0583,0.0608,0.0678,0.0809,0.0839,0.0906,0.0935,0.1017,0.1024,0.1153,0.1153,0.1121,0.1113,0.1136,0,0,0,0.0514,0.0552,0.0581,0.0635,0.0676,0.0787,0.0839,0.0924,0.099,0.1021,0.1153,0.1153,0.1122,0.1114,0.1136,0.1147,0.1147,0,0,0.0539,0.0554,0.0589,0.0619,0.0713,0.0764,0.0855,0.0957,0.1004,0.1101,0.1105,0.1121,0.1113,0.1136,0.1163,0.1163,0,0,0,0.0583,0.0607,0.0641,0.0701,0.0777,0.0843,0.0935,0.0973,0.1057,0.1044,0.1136,0.1133,0.1148,0.1155,0.1155,0.1171,0.1155,0.1155,0.1155,0.056,0.0616,0.0678,0.0754,0.0812,0.0905,0.0958,0.1025,0.1067,0.1087,0.1117,0.1126,0.1133,0.1134,0.1149,0.1127,0.1127,0.1127,0.1127,0.0603,0.0646,0.0699,0.0777,0.0837,0.0905,0.0997,0.1024,0.1097,0.1109,0.1125,0.1133,0.1132,0.1148,0.1125,0.1125,0.1125,0.1126,0.1126,0.0594,0.0625,0.0668,0.0761,0.0826,0.0904,0.097,0.1024,0.1074,0.109,0.1127,0.1128,0.1136,0.1104,0.1104,0.1104,0.1104,0.1104,0.1104,0.0568,0.0618,0.0667,0.0751,0.0797,0.0863,0.0958,0.1005,0.1071,0.1105,0.1105,0.1145,0.112,0.1113,0.1105,0.1105,0.1105,0.1104,0.1104,0.0591,0.0594,0.0669,0.0714,0.0818,0.088,0.0946,0.1038,0.1084,0.1116,0.1153,0.1125,0.1145,0.1145,0.114,0.1139,0.1139,0.1139,0.1139,0.0584,0.0598,0.0687,0.0756,0.083,0.0898,0.0983,0.1057,0.1134,0.1167,0.1175,0.1172,0.117,0.1191,0.1191,0.1187,0.1198,0.1198,0.1198,0.0601,0.0625,0.0686,0.076,0.0845,0.0918,0.1,0.1079,0.1168,0.1202,0.1194,0.1192,0.1188,0.1184,0.1217,0.1215,0.1209,0,0]},{"header":{"parameterUnit":"m.s-1","parameterCategory":1,"la1":30.2992,"la2":30.254,"lo1":-89.0895,"lo2":-89.0443,"dy":0.0025,"dx":0.0025,"nx":19,"ny":19,"refTime":"2026-04-28T21:00:00:Z","depth":0,"parameterNumber":3,"parameterNumberName":"V-component_of_WINDS"},"data":[0,0,0,4.4449,4.4451,4.4546,4.4546,4.466,4.4661,0,0,0,0,0,0,0,0,0,0,0,4.4419,4.442,4.4449,4.4451,4.4546,4.4546,4.466,4.4661,0,0,0,0,0,0,0,0,0,0,0,4.4418,4.4419,4.442,4.4452,4.4546,4.4546,4.466,4.459,0,0,0,0,0,0,0,0,0,0,4.4499,4.447,4.4419,4.442,4.4452,4.4546,4.4546,4.4587,4.4595,4.4615,0,4.4635,0,4.465,4.4669,4.4669,0,0,0,4.4452,4.4464,4.4491,4.442,4.4453,4.4546,4.4503,4.4591,4.46,4.4625,4.4637,4.4641,4.4652,4.4669,4.467,4.4792,4.4792,0,0,4.4447,4.4434,4.4486,4.4497,4.4485,4.45,4.4506,4.4597,4.4607,4.4637,4.4644,4.4654,4.467,4.4671,4.4791,4.4792,0,0,0,4.4431,4.443,4.4456,4.4492,4.451,4.4503,4.451,4.4603,4.4613,4.4645,4.4655,4.4671,4.4672,4.4791,4.4791,4.4808,0,0,0,4.4428,4.4421,4.4454,4.4447,4.4508,4.4558,4.4514,4.4607,4.4617,4.4655,4.4671,4.4673,4.479,4.4791,4.4806,4.4817,0,0,0,4.4413,4.442,4.4433,4.4446,4.4487,4.4557,4.4572,4.4609,4.4623,4.4669,4.4674,4.479,4.4791,4.4804,4.4814,4.4847,0,0,0,4.4393,4.4444,4.4433,4.4494,4.4486,4.4567,4.4572,4.4632,4.4673,4.4671,4.479,4.4791,4.4804,4.4813,4.4845,4.4872,4.4882,0,0,4.445,4.445,4.4487,4.448,4.456,4.4553,4.4635,4.4683,4.4697,4.4759,4.4762,4.4806,4.4814,4.4846,4.4941,4.4949,0,0,0,4.4501,4.4527,4.4551,4.4591,4.4631,4.4666,4.4703,4.4721,4.4774,4.4727,4.4826,4.4831,4.4851,4.4864,4.4871,4.4889,4.4797,4.4797,4.4797,4.4563,4.4581,4.4643,4.4673,4.4711,4.475,4.4783,4.4813,4.4817,4.484,4.4859,4.4915,4.493,4.4935,4.4953,4.4874,4.4874,4.4874,4.4874,4.4648,4.4689,4.4696,4.476,4.4777,4.4829,4.4868,4.487,4.492,4.4902,4.4919,4.4899,4.4944,4.496,4.4876,4.4875,4.4875,4.4875,4.4875,4.4692,4.4715,4.4737,4.4799,4.4843,4.487,4.4919,4.4932,4.4945,4.4962,4.4984,4.4984,4.4986,4.4972,4.4972,4.4972,4.4972,4.4972,4.4973,4.4728,4.4754,4.4795,4.4843,4.4871,4.4909,4.4949,4.4977,4.501,4.5016,4.5016,4.5019,4.4945,4.4927,4.4976,4.4975,4.4975,4.4974,4.4974,4.481,4.4795,4.4858,4.4887,4.4944,4.4988,4.5005,4.5059,4.5084,4.5107,4.5106,4.5049,4.505,4.5044,4.5029,4.5102,4.5102,4.5102,4.5102,4.4848,4.485,4.4919,4.4964,4.5009,4.5032,4.5101,4.5133,4.5162,4.5178,4.5169,4.515,4.5144,4.5148,4.514,4.5127,4.5222,4.5222,4.5223,4.49,4.4907,4.4965,4.4997,4.5043,4.5081,4.5147,4.5197,4.5226,4.5228,4.5191,4.5186,4.5155,4.5144,4.5145,4.5133,4.5108,0,0]}]]